BEIDOU-2 M3 (C11)

Last updated on Sat Aug 15 2026 00:03:26 GMT+0000 (Coordinated Universal Time)

1 38250U 12018A 26226.18020595 -.00000067 00000+0 00000+0 0 9990 2 38250 55.7047 302.9187 0022003 271.8229 87.9943 1.86229752 97026
UTC large
Height (km)
Speed (km/s)
/
Latitude / Longitude
Inclination (degrees)
Orbital Period (minutes)
Azimuth
Elevation
Range (km)
Doppler Factor

Next 0 passes for location: London (51.5072 / 0.1276)

No passes found over London.
BEIDOU-2 M3 (C11)